When you browse on this site, cookies collect data to enhance your experience and personalize the content and advertising you see.
Visit our Privacy Policy to learn more. By continuing to use the site, you agree to this use of cookies and data.
  • In Hungary
  • List of Countries
  • For 7 days
  • Water Temperature
  • Satellite Maps
  • Weather Map
  • News
  • Weather Widgets
  • user-avatar
    Login

    Hourly Weather Htun

    Today, 20 November, Tuesday

    Time Temperature Precipitation Wind Pressure Humidity
    00:00 +2°C° 0 mm 2 mps 668 mmHg 56%
    01:00 +2°C° 0 mm 2 mps 668 mmHg 56%
    02:00 +1°C° 0 mm 3 mps 667 mmHg 56%
    03:00 +1°C° 0 mm 3 mps 667 mmHg 58%
    04:00 +2°C° 0 mm 2 mps 667 mmHg 57%
    05:00 +2°C° 0 mm 2 mps 667 mmHg 56%
    06:00 +3°C° 0 mm 2 mps 666 mmHg 56%
    07:00 +4°C° 0 mm 2 mps 666 mmHg 53%
    08:00 +5°C° 0 mm 2 mps 666 mmHg 51%
    09:00 +7°C° 0 mm 2 mps 666 mmHg 48%
    10:00 +8°C° 0 mm 2 mps 666 mmHg 47%
    11:00 +9°C° 0 mm 2 mps 666 mmHg 46%
    12:00 +10°C° 0 mm 2 mps 666 mmHg 45%
    13:00 +11°C° 0 mm 1 mps 665 mmHg 47%
    14:00 +11°C° 0 mm 1 mps 665 mmHg 50%
    15:00 +11°C° 0 mm 1 mps 664 mmHg 52%
    16:00 +8°C° 0 mm 2 mps 664 mmHg 56%
    17:00 +7°C° 0 mm 2 mps 664 mmHg 60%
    18:00 +6°C° 0 mm 2 mps 663 mmHg 64%
    19:00 +6°C° 0 mm 2 mps 663 mmHg 63%
    20:00 +6°C° 0 mm 2 mps 663 mmHg 62%
    21:00 +6°C° 0 mm 2 mps 663 mmHg 61%
    22:00 +6°C° 0 mm 2 mps 662 mmHg 62%
    23:00 +5°C° 0 mm 2 mps 662 mmHg 63%

    Tomorrow, 21 November, Wednesday

    Time Temperature Precipitation Wind Pressure Humidity
    00:00 +5°C° 0 mm 2 mps 662 mmHg 64%
    01:00 +5°C° 0 mm 2 mps 662 mmHg 66%
    02:00 +4°C° 0 mm 2 mps 662 mmHg 68%
    03:00 +3°C° 0 mm 3 mps 662 mmHg 70%
    04:00 +3°C° 0 mm 3 mps 662 mmHg 72%
    05:00 +2°C° 0 mm 3 mps 662 mmHg 74%
    06:00 +2°C° 0 mm 3 mps 662 mmHg 77%
    07:00 +3°C° 0 mm 3 mps 663 mmHg 73%
    08:00 +4°C° 0 mm 3 mps 663 mmHg 69%
    09:00 +5°C° 0 mm 3 mps 664 mmHg 65%
    10:00 +5°C° 0 mm 3 mps 664 mmHg 65%
    11:00 +5°C° 0 mm 3 mps 664 mmHg 65%
    12:00 +7°C° 0 mm 3 mps 664 mmHg 64%
    13:00 +5°C° 0.2 mm 3 mps 663 mmHg 70%
    14:00 +4°C° 0.2 mm 3 mps 663 mmHg 76%
    15:00 +3°C° 0.2 mm 3 mps 663 mmHg 82%
    16:00 +3°C° 0.6 mm 3 mps 663 mmHg 85%
    17:00 +2°C° 0.6 mm 3 mps 663 mmHg 87%
    18:00 +2°C° 0.6 mm 3 mps 663 mmHg 89%
    19:00 +3°C° 0.4 mm 2 mps 663 mmHg 89%
    20:00 +2°C° 0.4 mm 2 mps 664 mmHg 88%
    21:00 +2°C° 0.4 mm 2 mps 664 mmHg 88%
    22:00 +2°C° 0.1 mm 2 mps 663 mmHg 89%
    23:00 +2°C° 0.1 mm 2 mps 663 mmHg 89%

    Day after tomorrow, 22 November, Thursday

    Time Temperature Precipitation Wind Pressure Humidity
    00:00 +1°C° 0.1 mm 2 mps 663 mmHg 90%
    01:00 +1°C° 0 mm 2 mps 663 mmHg 90%
    02:00 +1°C° 0 mm 2 mps 663 mmHg 90%
    03:00 +1°C° 0 mm 2 mps 663 mmHg 90%
    04:00 +2°C° 0 mm 1 mps 663 mmHg 89%
    05:00 +2°C° 0 mm 1 mps 663 mmHg 89%
    06:00 +2°C° 0 mm 1 mps 663 mmHg 88%
    07:00 +3°C° 0 mm 1 mps 663 mmHg 85%
    08:00 +2°C° 0 mm 2 mps 663 mmHg 83%
    09:00 +3°C° 0 mm 2 mps 664 mmHg 80%
    10:00 +4°C° 0 mm 2 mps 664 mmHg 80%
    11:00 +4°C° 0 mm 2 mps 663 mmHg 79%
    12:00 +4°C° 0 mm 2 mps 663 mmHg 79%
    13:00 +4°C° 0 mm 2 mps 663 mmHg 81%
    14:00 +4°C° 0 mm 2 mps 663 mmHg 83%
    15:00 +4°C° 0 mm 2 mps 663 mmHg 85%
    16:00 +3°C° 0 mm 2 mps 663 mmHg 86%
    17:00 +3°C° 0 mm 2 mps 663 mmHg 88%
    18:00 +3°C° 0 mm 1 mps 663 mmHg 89%
    19:00 +3°C° 0 mm 1 mps 663 mmHg 88%
    20:00 +3°C° 0 mm 1 mps 663 mmHg 87%
    21:00 +3°C° 0 mm 1 mps 663 mmHg 86%
    22:00 +3°C° 0 mm 1 mps 663 mmHg 85%
    23:00 +3°C° 0 mm 1 mps 663 mmHg 84%

    23 November, Friday

    Time Temperature Precipitation Wind Pressure Humidity
    00:00 +3°C° 0 mm 1 mps 663 mmHg 84%
    01:00 +3°C° 0 mm 1 mps 663 mmHg 83%
    02:00 +2°C° 0 mm 1 mps 663 mmHg 83%
    03:00 +2°C° 0 mm 1 mps 662 mmHg 82%
    04:00 +2°C° 0 mm 1 mps 662 mmHg 82%
    05:00 +2°C° 0 mm 1 mps 662 mmHg 82%
    06:00 +2°C° 0 mm 1 mps 662 mmHg 81%
    07:00 +3°C° 0 mm 1 mps 663 mmHg 79%
    08:00 +3°C° 0 mm 2 mps 663 mmHg 77%
    09:00 +4°C° 0 mm 2 mps 664 mmHg 75%
    10:00 +4°C° 0 mm 2 mps 664 mmHg 75%
    11:00 +5°C° 0 mm 2 mps 663 mmHg 75%
    12:00 +5°C° 0 mm 2 mps 663 mmHg 75%
    13:00 +5°C° 0 mm 2 mps 663 mmHg 78%
    14:00 +4°C° 0 mm 2 mps 663 mmHg 80%
    15:00 +4°C° 0 mm 2 mps 663 mmHg 83%
    16:00 +3°C° 0 mm 2 mps 664 mmHg 85%
    17:00 +3°C° 0 mm 2 mps 664 mmHg 87%
    18:00 +2°C° 0 mm 2 mps 665 mmHg 89%
    19:00 +2°C° 0.2 mm 2 mps 665 mmHg 89%
    20:00 +1°C° 0.2 mm 3 mps 666 mmHg 89%
    21:00 0°C° 0.2 mm 3 mps 667 mmHg 89%
    22:00 0°C° 0.1 mm 3 mps 667 mmHg 88%
    23:00 -2°C° 0.1 mm 4 mps 668 mmHg 87%

    24 November, Saturday

    Time Temperature Precipitation Wind Pressure Humidity
    00:00 -2°C° 0.1 mm 4 mps 668 mmHg 86%
    01:00 -3°C° 0 mm 4 mps 668 mmHg 86%
    02:00 -2°C° 0 mm 3 mps 669 mmHg 86%
    03:00 -4°C° 0 mm 3 mps 669 mmHg 87%
    04:00 -4°C° 0 mm 3 mps 670 mmHg 87%
    05:00 -4°C° 0 mm 3 mps 670 mmHg 87%
    06:00 -3°C° 0 mm 2 mps 671 mmHg 87%
    07:00 -2°C° 0 mm 2 mps 671 mmHg 84%
    08:00 -2°C° 0 mm 2 mps 672 mmHg 81%
    09:00 -1°C° 0 mm 2 mps 673 mmHg 78%
    10:00 +1°C° 0 mm 2 mps 673 mmHg 76%
    11:00 +1°C° 0 mm 2 mps 673 mmHg 74%
    12:00 +2°C° 0 mm 2 mps 674 mmHg 73%
    13:00 +1°C° 0 mm 3 mps 674 mmHg 74%
    14:00 +1°C° 0 mm 3 mps 673 mmHg 75%
    15:00 0°C° 0 mm 3 mps 673 mmHg 76%
    16:00 0°C° 0 mm 3 mps 673 mmHg 77%
    17:00 -1°C° 0 mm 3 mps 673 mmHg 79%
    18:00 -1°C° 0 mm 3 mps 673 mmHg 81%
    19:00 -1°C° 0 mm 3 mps 673 mmHg 79%
    20:00 -1°C° 0 mm 3 mps 673 mmHg 78%
    21:00 -1°C° 0 mm 3 mps 673 mmHg 76%
    22:00 -1°C° 0 mm 3 mps 672 mmHg 75%
    23:00 -1°C° 0 mm 3 mps 672 mmHg 73%

    25 November, Sunday

    Time Temperature Precipitation Wind Pressure Humidity
    00:00 0°C° 0 mm 3 mps 672 mmHg 71%
    01:00 0°C° 0 mm 3 mps 671 mmHg 70%
    02:00 0°C° 0 mm 3 mps 670 mmHg 69%
    03:00 0°C° 0 mm 3 mps 670 mmHg 68%
    04:00 0°C° 0 mm 3 mps 669 mmHg 66%
    05:00 0°C° 0 mm 3 mps 669 mmHg 65%
    06:00 +1°C° 0 mm 2 mps 669 mmHg 63%
    07:00 +3°C° 0 mm 2 mps 668 mmHg 60%
    08:00 +4°C° 0 mm 2 mps 668 mmHg 57%
    09:00 +5°C° 0 mm 2 mps 668 mmHg 53%
    10:00 +6°C° 0 mm 2 mps 668 mmHg 52%
    11:00 +7°C° 0 mm 2 mps 667 mmHg 51%
    12:00 +8°C° 0 mm 2 mps 667 mmHg 50%
    13:00 +7°C° 0 mm 2 mps 666 mmHg 53%
    14:00 +7°C° 0 mm 2 mps 666 mmHg 57%
    15:00 +7°C° 0 mm 1 mps 666 mmHg 60%
    16:00 +6°C° 0 mm 1 mps 665 mmHg 62%
    17:00 +5°C° 0 mm 1 mps 665 mmHg 64%
    18:00 +4°C° 0 mm 1 mps 665 mmHg 66%
    19:00 +4°C° 0 mm 1 mps 665 mmHg 65%
    20:00 +4°C° 0 mm 1 mps 665 mmHg 63%
    21:00 +4°C° 0 mm 1 mps 665 mmHg 62%
    22:00 +4°C° 0 mm 1 mps 664 mmHg 61%
    23:00 +4°C° 0 mm 1 mps 664 mmHg 60%
    Show more